Tracking 28790 objects as of 19-Apr-2024
HD Live streaming from Space Station
objects crossing your sky now

DMSP 5D-3 F18 DEB

Track DMSP 5D-3 F18 DEB now!
10-day predictions


NORAD ID: 35953
Int'l Code: 2009-057C
Perigee: 821.5 km
Apogee: 825.2 km
Inclination: 98.6 °
Period: 101.2 minutes
Semi major axis: 7194 km
RCS: 0.056 m2 (small)
Launch date: October 18, 2009
Source: United States (US)
Launch site: AIR FORCE WESTERN TEST RANGE (AFWTR)

Note: This is SATELLITE DEBRIS
Your satellite tracking list
Your tracking list is empty




NASA's NSSDC Master Catalog

Two Line Element Set (TLE):
1 35953U 09057C   24109.56204574  .00005763  00000-0  25908-2 0  9992
2 35953  98.5952 100.9826 0002564 256.0293 227.2980 14.22709079749950
Source of the keplerian elements: AFSPC